Time,TemperatureF,DewpointF,PressureIn,WindDirection,WindDirectionDegrees,WindSpeedMPH,WindSpeedGustMPH,Humidity,HourlyPrecipIn,Conditions,Clouds,dailyrainin,SoftwareType,DateUTC
2013-01-30 00:01:00,14.0,12.0,30.24,NW,308,0.0,-999.0,93,-99.99,,,-99.99,,2013-01-30 07:01:00,
2013-01-30 00:11:00,14.0,12.0,30.24,NW,308,0.0,-999.0,93,-99.99,,,-99.99,,2013-01-30 07:11:00,
2013-01-30 00:21:00,14.0,12.0,30.24,NW,307,0.0,-999.0,93,-99.99,,,-99.99,,2013-01-30 07:21:00,
2013-01-30 00:31:00,14.0,12.0,30.22,NW,305,0.0,-999.0,93,-99.99,,,-99.99,,2013-01-30 07:31:00,
2013-01-30 00:41:00,14.0,12.0,30.22,NW,305,0.0,-999.0,93,-99.99,,,-99.99,,2013-01-30 07:41:00,
2013-01-30 00:52:00,14.0,12.0,30.22,NW,305,0.0,-999.0,93,-99.99,,,-99.99,,2013-01-30 07:52:00,
2013-01-30 01:01:00,14.0,12.0,30.21,WNW,303,0.0,-999.0,93,-99.99,,,-99.99,,2013-01-30 08:01:00,
2013-01-30 01:11:00,14.0,12.0,30.21,WNW,303,0.0,-999.0,93,-99.99,,,-99.99,,2013-01-30 08:11:00,
2013-01-30 01:21:00,14.0,12.0,30.21,WNW,295,0.0,-999.0,93,-99.99,,,-99.99,,2013-01-30 08:21:00,
2013-01-30 01:32:00,14.0,12.0,30.22,NW,306,0.0,-999.0,93,-99.99,,,-99.99,,2013-01-30 08:32:00,
2013-01-30 01:41:00,14.0,12.0,30.22,NW,306,0.0,-999.0,93,-99.99,,,-99.99,,2013-01-30 08:41:00,
2013-01-30 01:52:00,14.0,12.0,30.21,WNW,302,0.0,-999.0,93,-99.99,,,-99.99,,2013-01-30 08:52:00,
2013-01-30 02:01:00,14.0,12.0,30.20,NW,305,0.0,-999.0,93,-99.99,,,-99.99,,2013-01-30 09:01:00,
2013-01-30 02:11:00,14.0,12.0,30.20,NW,305,0.0,-999.0,93,-99.99,,,-99.99,,2013-01-30 09:11:00,
2013-01-30 02:21:00,15.0,13.0,30.19,NW,316,0.0,-999.0,93,-99.99,,,-99.99,,2013-01-30 09:21:00,
2013-01-30 02:31:00,15.0,13.0,30.19,NW,308,0.0,-999.0,93,-99.99,,,-99.99,,2013-01-30 09:31:00,
2013-01-30 02:41:00,15.0,13.0,30.19,NW,308,0.0,-999.0,93,-99.99,,,-99.99,,2013-01-30 09:41:00,
2013-01-30 02:51:00,15.0,14.0,30.20,NNW,336,0.0,-999.0,94,-99.99,,,-99.99,,2013-01-30 09:51:00,
2013-01-30 03:01:00,15.0,14.0,30.19,NW,308,0.0,-999.0,94,-99.99,,,-99.99,,2013-01-30 10:01:00,
2013-01-30 03:11:00,15.0,14.0,30.19,NW,308,0.0,-999.0,94,-99.99,,,-99.99,,2013-01-30 10:11:00,
2013-01-30 03:21:00,15.0,14.0,30.22,WNW,297,0.0,-999.0,94,-99.99,,,-99.99,,2013-01-30 10:21:00,
2013-01-30 03:31:00,15.0,14.0,30.21,WNW,299,0.0,-999.0,94,-99.99,,,-99.99,,2013-01-30 10:31:00,
2013-01-30 03:41:00,15.0,14.0,30.21,WNW,299,0.0,-999.0,94,-99.99,,,-99.99,,2013-01-30 10:41:00,
2013-01-30 03:52:00,16.0,15.0,30.21,NNW,328,0.0,-999.0,94,-99.99,,,-99.99,,2013-01-30 10:52:00,
2013-01-30 04:01:00,16.0,15.0,30.21,NNW,328,0.0,-999.0,94,-99.99,,,-99.99,,2013-01-30 11:01:00,
2013-01-30 04:11:00,16.0,15.0,30.21,NNW,328,0.0,-999.0,94,-99.99,,,-99.99,,2013-01-30 11:11:00,
2013-01-30 04:21:00,16.0,15.0,30.20,NNW,328,0.0,-999.0,94,-99.99,,,-99.99,,2013-01-30 11:21:00,
2013-01-30 04:32:00,16.0,15.0,30.21,NNW,328,0.0,-999.0,94,-99.99,,,-99.99,,2013-01-30 11:32:00,
2013-01-30 04:41:00,16.0,15.0,30.21,NNW,328,0.0,-999.0,94,-99.99,,,-99.99,,2013-01-30 11:41:00,
2013-01-30 04:52:00,16.0,15.0,30.21,NNW,328,0.0,-999.0,94,-99.99,,,-99.99,,2013-01-30 11:52:00,
2013-01-30 05:01:00,16.0,15.0,30.21,NNW,328,0.0,-999.0,94,-99.99,,,-99.99,,2013-01-30 12:01:00,
2013-01-30 05:12:00,16.0,15.0,30.21,NNW,328,0.0,-999.0,94,-99.99,,,-99.99,,2013-01-30 12:12:00,
2013-01-30 05:22:00,17.0,16.0,30.21,NNW,328,0.0,-999.0,94,-99.99,,,-99.99,,2013-01-30 12:22:00,
2013-01-30 05:32:00,17.0,16.0,30.21,NW,326,0.0,-999.0,94,-99.99,,,-99.99,,2013-01-30 12:32:00,
2013-01-30 05:42:00,17.0,16.0,30.21,NW,326,0.0,-999.0,94,-99.99,,,-99.99,,2013-01-30 12:42:00,
2013-01-30 06:02:00,17.0,16.0,30.21,NNW,332,0.0,-999.0,94,-99.99,,,-99.99,,2013-01-30 13:02:00,
2013-01-30 06:12:00,17.0,16.0,30.21,NNW,332,0.0,-999.0,94,-99.99,,,-99.99,,2013-01-30 13:12:00,
2013-01-30 06:22:00,17.0,16.0,30.20,NNW,332,0.0,-999.0,94,-99.99,,,-99.99,,2013-01-30 13:22:00,
2013-01-30 06:31:00,18.0,17.0,30.20,NNW,335,0.0,-999.0,94,-99.99,,,-99.99,,2013-01-30 13:31:00,
2013-01-30 06:43:00,18.0,17.0,30.20,NNW,335,0.0,-999.0,94,-99.99,,,-99.99,,2013-01-30 13:43:00,
2013-01-30 06:53:00,18.0,17.0,30.19,NW,320,0.0,-999.0,95,-99.99,,,-99.99,,2013-01-30 13:53:00,
2013-01-30 07:01:00,18.0,17.0,30.19,NW,326,0.0,-999.0,95,-99.99,,,-99.99,,2013-01-30 14:01:00,
2013-01-30 07:11:00,18.0,17.0,30.19,NW,326,0.0,-999.0,95,-99.99,,,-99.99,,2013-01-30 14:11:00,
2013-01-30 07:22:00,19.0,18.0,30.20,NW,317,0.0,-999.0,94,-99.99,,,-99.99,,2013-01-30 14:22:00,
2013-01-30 07:32:00,19.0,18.0,30.20,NNW,335,0.0,-999.0,94,-99.99,,,-99.99,,2013-01-30 14:32:00,
2013-01-30 07:42:00,19.0,18.0,30.20,NNW,335,0.0,-999.0,94,-99.99,,,-99.99,,2013-01-30 14:42:00,
2013-01-30 07:53:00,19.0,18.0,30.20,North,354,0.0,-999.0,95,-99.99,,,-99.99,,2013-01-30 14:53:00,
2013-01-30 08:02:00,19.0,18.0,30.20,NNE,22,0.0,-999.0,95,-99.99,,,-99.99,,2013-01-30 15:02:00,
2013-01-30 08:11:00,19.0,18.0,30.20,NNE,22,0.0,-999.0,95,-99.99,,,-99.99,,2013-01-30 15:11:00,
2013-01-30 08:22:00,20.0,19.0,30.20,NNW,345,0.0,-999.0,95,-99.99,,,-99.99,,2013-01-30 15:22:00,
2013-01-30 08:32:00,20.0,19.0,30.20,North,354,0.0,-999.0,95,-99.99,,,-99.99,,2013-01-30 15:32:00,
2013-01-30 08:42:00,20.0,19.0,30.20,North,354,0.0,-999.0,95,-99.99,,,-99.99,,2013-01-30 15:42:00,
2013-01-30 08:53:00,20.0,19.0,30.20,North,354,0.0,-999.0,95,-99.99,,,-99.99,,2013-01-30 15:53:00,
2013-01-30 09:02:00,20.0,19.0,30.20,NNW,333,0.0,-999.0,95,-99.99,,,-99.99,,2013-01-30 16:02:00,
2013-01-30 09:11:00,20.0,19.0,30.20,NNW,333,0.0,-999.0,95,-99.99,,,-99.99,,2013-01-30 16:11:00,
2013-01-30 09:22:00,21.0,20.0,30.20,NNW,341,0.0,-999.0,95,-99.99,,,-99.99,,2013-01-30 16:22:00,
2013-01-30 09:32:00,21.0,20.0,30.20,North,359,0.0,-999.0,95,-99.99,,,-99.99,,2013-01-30 16:32:00,
2013-01-30 09:42:00,21.0,20.0,30.20,North,359,0.0,-999.0,95,-99.99,,,-99.99,,2013-01-30 16:42:00,
2013-01-30 09:52:00,21.0,20.0,30.20,North,359,0.0,-999.0,95,-99.99,,,-99.99,,2013-01-30 16:52:00,
2013-01-30 10:01:00,21.0,20.0,30.20,NNE,33,0.0,-999.0,95,-99.99,,,-99.99,,2013-01-30 17:01:00,
2013-01-30 10:12:00,21.0,20.0,30.20,NNE,33,0.0,-999.0,95,-99.99,,,-99.99,,2013-01-30 17:12:00,
2013-01-30 10:22:00,21.0,20.0,30.20,North,354,0.0,-999.0,95,-99.99,,,-99.99,,2013-01-30 17:22:00,
2013-01-30 10:32:00,21.0,20.0,30.20,NW,312,0.0,-999.0,95,-99.99,,,-99.99,,2013-01-30 17:32:00,
2013-01-30 10:43:00,21.0,20.0,30.20,NW,312,0.0,-999.0,95,-99.99,,,-99.99,,2013-01-30 17:43:00,
2013-01-30 10:53:00,21.0,20.0,30.21,NNE,23,0.0,-999.0,95,-99.99,,,-99.99,,2013-01-30 17:53:00,
2013-01-30 11:02:00,22.0,21.0,30.20,North,354,0.0,-999.0,96,-99.99,,,-99.99,,2013-01-30 18:02:00,
2013-01-30 11:11:00,22.0,21.0,30.20,North,354,0.0,-999.0,96,-99.99,,,-99.99,,2013-01-30 18:11:00,
2013-01-30 11:22:00,22.0,21.0,30.21,North,4,0.0,-999.0,96,-99.99,,,-99.99,,2013-01-30 18:22:00,
2013-01-30 11:32:00,22.0,21.0,30.21,North,350,0.0,-999.0,96,-99.99,,,-99.99,,2013-01-30 18:32:00,
2013-01-30 11:42:00,22.0,21.0,30.21,North,350,0.0,-999.0,96,-99.99,,,-99.99,,2013-01-30 18:42:00,
2013-01-30 11:52:00,22.0,21.0,30.21,NNW,338,0.0,-999.0,96,-99.99,,,-99.99,,2013-01-30 18:52:00,
2013-01-30 12:02:00,22.0,21.0,30.20,NW,325,0.0,-999.0,96,-99.99,,,-99.99,,2013-01-30 19:02:00,
2013-01-30 12:11:00,22.0,21.0,30.20,NW,325,0.0,-999.0,96,-99.99,,,-99.99,,2013-01-30 19:11:00,
2013-01-30 12:22:00,22.0,21.0,30.20,North,354,0.0,-999.0,96,-99.99,,,-99.99,,2013-01-30 19:22:00,
2013-01-30 12:32:00,22.0,21.0,30.19,NNW,327,0.0,-999.0,96,-99.99,,,-99.99,,2013-01-30 19:32:00,
2013-01-30 12:42:00,22.0,21.0,30.19,NNW,327,0.0,-999.0,96,-99.99,,,-99.99,,2013-01-30 19:42:00,
2013-01-30 12:52:00,23.0,22.0,30.20,NNE,33,0.0,-999.0,96,-99.99,,,-99.99,,2013-01-30 19:52:00,
2013-01-30 13:02:00,23.0,22.0,30.21,NE,42,0.0,-999.0,96,-99.99,,,-99.99,,2013-01-30 20:02:00,
2013-01-30 13:11:00,23.0,22.0,30.21,NE,42,0.0,-999.0,96,-99.99,,,-99.99,,2013-01-30 20:11:00,
2013-01-30 13:21:00,23.0,22.0,30.21,SSW,209,0.0,-999.0,96,-99.99,,,-99.99,,2013-01-30 20:21:00,
2013-01-30 13:32:00,23.0,22.0,30.21,NNE,16,0.0,-999.0,96,-99.99,,,-99.99,,2013-01-30 20:32:00,
2013-01-30 13:41:00,23.0,22.0,30.21,NNE,16,0.0,-999.0,96,-99.99,,,-99.99,,2013-01-30 20:41:00,
2013-01-30 13:52:00,23.0,22.0,30.21,North,350,0.0,-999.0,96,-99.99,,,-99.99,,2013-01-30 20:52:00,
2013-01-30 14:02:00,23.0,22.0,30.21,NNW,338,0.0,-999.0,96,-99.99,,,-99.99,,2013-01-30 21:02:00,
2013-01-30 14:11:00,23.0,22.0,30.21,NNW,338,0.0,-999.0,96,-99.99,,,-99.99,,2013-01-30 21:11:00,
2013-01-30 14:22:00,23.0,22.0,30.22,NNW,335,0.0,-999.0,96,-99.99,,,-99.99,,2013-01-30 21:22:00,
2013-01-30 14:31:00,23.0,22.0,30.22,NW,326,0.0,-999.0,96,-99.99,,,-99.99,,2013-01-30 21:31:00,
2013-01-30 14:42:00,23.0,22.0,30.22,NW,326,0.0,-999.0,96,-99.99,,,-99.99,,2013-01-30 21:42:00,
2013-01-30 14:52:00,23.0,22.0,30.22,NW,318,0.0,-999.0,96,-99.99,,,-99.99,,2013-01-30 21:52:00,
2013-01-30 15:02:00,23.0,22.0,30.21,North,349,0.0,-999.0,96,-99.99,,,-99.99,,2013-01-30 22:02:00,
2013-01-30 15:11:00,23.0,22.0,30.21,North,349,0.0,-999.0,96,-99.99,,,-99.99,,2013-01-30 22:11:00,
2013-01-30 15:22:00,23.0,22.0,30.21,WNW,302,0.0,-999.0,96,-99.99,,,-99.99,,2013-01-30 22:22:00,
2013-01-30 15:32:00,23.0,22.0,30.21,NNE,27,0.0,-999.0,96,-99.99,,,-99.99,,2013-01-30 22:32:00,
2013-01-30 15:41:00,23.0,22.0,30.21,NNE,27,0.0,-999.0,96,-99.99,,,-99.99,,2013-01-30 22:41:00,
2013-01-30 15:52:00,23.0,22.0,30.21,NW,312,0.0,-999.0,96,-99.99,,,-99.99,,2013-01-30 22:52:00,
2013-01-30 16:01:00,23.0,22.0,30.22,NNW,330,0.0,-999.0,96,-99.99,,,-99.99,,2013-01-30 23:01:00,
2013-01-30 16:11:00,23.0,22.0,30.22,NNW,330,0.0,-999.0,96,-99.99,,,-99.99,,2013-01-30 23:11:00,
2013-01-30 16:22:00,23.0,22.0,30.22,WNW,303,0.0,-999.0,96,-99.99,,,-99.99,,2013-01-30 23:22:00,
2013-01-30 16:32:00,23.0,22.0,30.22,North,349,0.0,-999.0,96,-99.99,,,-99.99,,2013-01-30 23:32:00,
2013-01-30 16:42:00,23.0,22.0,30.22,North,349,0.0,-999.0,96,-99.99,,,-99.99,,2013-01-30 23:42:00,
2013-01-30 16:52:00,23.0,22.0,30.22,NNE,18,0.0,-999.0,96,-99.99,,,-99.99,,2013-01-30 23:52:00,
2013-01-30 17:01:00,23.0,22.0,30.23,NNW,335,0.0,-999.0,96,-99.99,,,-99.99,,2013-01-31 00:01:00,
2013-01-30 17:11:00,23.0,22.0,30.23,NNW,335,0.0,-999.0,96,-99.99,,,-99.99,,2013-01-31 00:11:00,
2013-01-30 17:21:00,23.0,22.0,30.24,NNW,337,0.0,-999.0,96,-99.99,,,-99.99,,2013-01-31 00:21:00,
2013-01-30 17:32:00,23.0,22.0,30.24,NE,50,0.0,-999.0,96,-99.99,,,-99.99,,2013-01-31 00:32:00,
2013-01-30 17:42:00,23.0,22.0,30.24,NE,50,0.0,-999.0,96,-99.99,,,-99.99,,2013-01-31 00:42:00,
2013-01-30 17:53:00,23.0,22.0,30.24,NNW,329,0.0,-999.0,96,-99.99,,,-99.99,,2013-01-31 00:53:00,
2013-01-30 18:01:00,23.0,22.0,30.24,NW,322,0.0,-999.0,96,-99.99,,,-99.99,,2013-01-31 01:01:00,
2013-01-30 18:11:00,23.0,22.0,30.24,NW,322,0.0,-999.0,96,-99.99,,,-99.99,,2013-01-31 01:11:00,
2013-01-30 18:21:00,23.0,22.0,30.25,North,4,0.0,-999.0,96,-99.99,,,-99.99,,2013-01-31 01:21:00,
2013-01-30 18:31:00,23.0,22.0,30.26,NNW,347,0.0,-999.0,96,-99.99,,,-99.99,,2013-01-31 01:31:00,
2013-01-30 18:41:00,23.0,22.0,30.26,NNW,347,0.0,-999.0,96,-99.99,,,-99.99,,2013-01-31 01:41:00,
2013-01-30 18:52:00,23.0,22.0,30.26,NE,43,0.0,-999.0,96,-99.99,,,-99.99,,2013-01-31 01:52:00,
2013-01-30 19:01:00,23.0,22.0,30.26,NE,53,0.0,-999.0,96,-99.99,,,-99.99,,2013-01-31 02:01:00,
2013-01-30 19:11:00,23.0,22.0,30.26,NE,53,0.0,-999.0,96,-99.99,,,-99.99,,2013-01-31 02:11:00,
2013-01-30 19:21:00,23.0,22.0,30.25,NW,312,0.0,-999.0,96,-99.99,,,-99.99,,2013-01-31 02:21:00,
2013-01-30 19:32:00,23.0,22.0,30.25,NNE,18,0.0,-999.0,96,-99.99,,,-99.99,,2013-01-31 02:32:00,
2013-01-30 19:41:00,23.0,22.0,30.25,NNE,18,0.0,-999.0,96,-99.99,,,-99.99,,2013-01-31 02:41:00,
2013-01-30 19:52:00,23.0,22.0,30.25,NNE,18,0.0,-999.0,96,-99.99,,,-99.99,,2013-01-31 02:52:00,
2013-01-30 20:02:00,23.0,22.0,30.26,ENE,64,0.0,-999.0,96,-99.99,,,-99.99,,2013-01-31 03:02:00,
2013-01-30 20:11:00,23.0,22.0,30.26,ENE,64,0.0,-999.0,96,-99.99,,,-99.99,,2013-01-31 03:11:00,
2013-01-30 20:21:00,23.0,22.0,30.27,NE,48,0.0,-999.0,96,-99.99,,,-99.99,,2013-01-31 03:21:00,
2013-01-30 20:32:00,23.0,22.0,30.27,East,98,0.0,-999.0,96,-99.99,,,-99.99,,2013-01-31 03:32:00,
2013-01-30 20:41:00,23.0,22.0,30.27,East,98,0.0,-999.0,96,-99.99,,,-99.99,,2013-01-31 03:41:00,
2013-01-30 20:52:00,23.0,22.0,30.27,ENE,66,0.0,-999.0,96,-99.99,,,-99.99,,2013-01-31 03:52:00,
2013-01-30 21:02:00,23.0,22.0,30.28,East,85,0.0,-999.0,96,-99.99,,,-99.99,,2013-01-31 04:02:00,
2013-01-30 21:11:00,23.0,22.0,30.28,East,85,0.0,-999.0,96,-99.99,,,-99.99,,2013-01-31 04:11:00,
2013-01-30 21:22:00,23.0,22.0,30.28,East,79,0.0,-999.0,96,-99.99,,,-99.99,,2013-01-31 04:22:00,
2013-01-30 21:31:00,23.0,22.0,30.29,SE,135,0.0,-999.0,96,-99.99,,,-99.99,,2013-01-31 04:31:00,
2013-01-30 21:41:00,23.0,22.0,30.29,SE,135,0.0,-999.0,96,-99.99,,,-99.99,,2013-01-31 04:41:00,
2013-01-30 21:52:00,23.0,22.0,30.29,ENE,77,0.0,-999.0,96,-99.99,,,-99.99,,2013-01-31 04:52:00,
2013-01-30 22:03:00,23.0,22.0,30.28,East,81,0.0,-999.0,96,-99.99,,,-99.99,,2013-01-31 05:03:00,
2013-01-30 22:11:00,23.0,22.0,30.28,East,81,0.0,-999.0,96,-99.99,,,-99.99,,2013-01-31 05:11:00,
2013-01-30 22:21:00,23.0,22.0,30.28,ENE,68,0.0,-999.0,96,-99.99,,,-99.99,,2013-01-31 05:21:00,
2013-01-30 22:31:00,23.0,22.0,30.28,ENE,68,0.0,-999.0,96,-99.99,,,-99.99,,2013-01-31 05:31:00,
2013-01-30 22:41:00,23.0,22.0,30.28,North,4,0.0,-999.0,96,-99.99,,,-99.99,,2013-01-31 05:41:00,
2013-01-30 22:51:00,23.0,22.0,30.28,North,4,0.0,-999.0,96,-99.99,,,-99.99,,2013-01-31 05:51:00,
2013-01-30 23:01:00,23.0,22.0,30.28,North,4,0.0,-999.0,96,-99.99,,,-99.99,,2013-01-31 06:01:00,
2013-01-30 23:10:00,23.0,22.0,30.28,North,4,0.0,-999.0,96,-99.99,,,-99.99,,2013-01-31 06:10:00,